EB5EEV-5 Weather Reports


time (UTC)temp
C
wind
direction
speed
KPH
gust
KPH
rain 1hr
cm
rain 24hr
cm
rain mn
cm
humidity
%
barometer
mb
20260510162202 27 240 3.2 4.8 0.00 0.00 0.00 4 1005.9
20260510160859 27 261 3.2 8.0 0.00 0.00 0.00 4 1006.0
20260510155602 26 248 9.7 16.1 0.00 0.00 0.00 5 1006.1
20260510154235 26 206 3.2 4.8 0.00 0.00 0.00 5 1006.2
20260510153039 25 0 0.0 3.2 0.00 0.00 0.00 5 1006.4
20260510151745 25 0 0.0 3.2 0.00 0.00 0.00 5 1006.4
20260510150424 25 0 0.0 1.6 0.00 0.00 0.00 5 1006.6
20260510145145 24 126 1.6 3.2 0.00 0.00 0.00 5 1006.8
20260510143724 25 269 1.6 1.6 0.00 0.00 0.00 5 1007.0
20260510142308 23 0 0.0 1.6 0.00 0.00 0.00 6 1007.3
20260510140832 22 144 1.6 3.2 0.00 0.00 0.00 6 1007.4
20260510135530 23 139 1.6 3.2 0.00 0.00 0.00 6 1007.9
20260510134132 22 226 3.2 8.0 0.00 0.00 0.00 6 1008.3
20260510132839 22 0 0.0 4.8 0.00 0.00 0.00 5 1008.7
20260510131515 22 327 4.8 4.8 0.00 0.00 0.00 6 1008.9
20260510130114 22 327 4.8 4.8 0.00 0.00 0.00 6 1008.9
20260510124720 21 0 0.0 4.8 0.00 0.00 0.00 6 1009.3
20260510123440 21 0 0.0 1.6 0.00 0.00 0.00 6 1009.5
20260510122046 23 309 4.8 6.4 0.00 0.00 0.00 5 1009.5
20260510120800 23 219 6.4 11.3 0.00 0.00 0.00 5 1009.7
20260510115500 23 0 0.0 3.2 0.00 0.00 0.00 5 1009.8
20260510114215 22 38 6.4 6.4 0.00 0.00 0.00 6 1009.9
20260510112829 22 313 4.8 9.7 0.00 0.00 0.00 6 1010.0
20260510111348 22 333 1.6 4.8 0.00 0.00 0.00 6 1010.1
20260510110045 22 146 3.2 9.7 0.00 0.00 0.00 6 1010.3
20260510105307 22 146 3.2 9.7 0.00 0.00 0.00 6 1010.3
20260510104001 22 0 0.0 6.4 0.00 0.00 0.00 5 1010.3
20260510102651 21 0 0.0 4.8 0.00 0.00 0.00 6 1010.5
20260510101446 21 195 1.6 4.8 0.00 0.00 0.00 6 1010.5
20260510100213 21 195 1.6 4.8 0.00 0.00 0.00 6 1010.5
20260510094945 21 224 11.3 11.3 0.00 0.00 0.00 6 1010.5
20260510093540 21 250 4.8 9.7 0.00 0.00 0.00 6 1010.4
20260510092318 21 229 6.4 9.7 0.00 0.00 0.00 6 1010.5
20260510091036 21 205 1.6 4.8 0.00 0.00 0.00 6 1010.7
20260510085556 21 277 4.8 4.8 0.00 0.00 0.00 5 1010.8
20260510084226 21 0 0.0 0.0 0.00 0.00 0.00 6 1010.9
20260510083006 20 0 0.0 0.0 0.00 0.00 0.00 7 1010.8
20260510081630 20 0 0.0 0.0 0.00 0.00 0.00 7 1010.8
20260510080201 19 0 0.0 0.0 0.00 0.00 0.00 7 1010.9
20260510074721 18 0 0.0 1.6 0.00 0.00 0.00 8 1011.0
20260510073221 17 0 0.0 0.0 0.00 0.00 0.00 8 1011.0
20260510071851 16 0 0.0 1.6 0.00 0.00 0.00 8 1011.1
20260510070516 16 0 0.0 0.0 0.00 0.00 0.00 8 1010.9
20260510065319 15 0 0.0 1.6 0.00 0.00 0.00 8 1010.8
20260510063924 15 0 0.0 0.0 0.00 0.00 0.00 8 1010.6
20260510062721 14 134 1.6 1.6 0.00 0.00 0.00 8 1010.4
20260510061506 14 0 0.0 1.6 0.00 0.00 0.00 9 1010.3
20260510060158 14 0 0.0 1.6 0.00 0.00 0.00 9 1010.3
20260510054741 13 0 0.0 1.6 0.00 0.00 0.00 9 1010.3
20260510053411 13 124 1.6 1.6 0.00 0.00 0.00 9 1010.2
20260510052141 13 0 0.0 0.0 0.00 0.00 0.00 9 1010.1
20260510050755 13 0 0.0 1.6 0.00 0.00 0.00 9 1010.1
20260510045559 13 0 0.0 1.6 0.00 0.00 0.00 9 1009.9
20260510044341 13 0 0.0 1.6 0.00 0.00 0.00 9 1009.9
20260510042943 13 0 0.0 0.0 0.00 0.00 0.00 9 1009.9
20260510041647 13 0 0.0 0.0 0.00 0.00 0.00 9 1009.9
20260510040158 13 0 0.0 1.6 0.00 0.00 0.00 9 1009.9
20260510034918 13 0 0.0 0.0 0.00 0.00 0.00 9 1009.8
20260510033441 13 0 0.0 0.0 0.00 0.00 0.00 9 1009.7
20260510031951 13 0 0.0 0.0 0.00 0.00 0.00 9 1009.8
20260510030738 13 0 0.0 0.0 0.00 0.00 0.00 9 1009.8
20260510025511 13 0 0.0 0.0 0.00 0.00 0.00 9 1009.8
20260510024216 14 0 0.0 0.0 0.00 0.00 0.00 9 1009.7
20260510022916 14 0 0.0 1.6 0.00 0.00 0.00 9 1009.8
20260510021519 14 158 3.2 3.2 0.00 0.00 0.00 9 1009.7
20260510020031 14 0 0.0 0.0 0.00 0.00 0.00 9 1009.8
20260510014631 14 0 0.0 0.0 0.00 0.00 0.00 9 1009.8
20260510013136 15 0 0.0 0.0 0.00 0.00 0.00 9 1009.8
20260510011727 15 0 0.0 0.0 0.00 0.00 0.00 9 1010.0
20260510010241 15 0 0.0 0.0 0.00 0.00 0.00 9 1010.0
20260510004838 15 0 0.0 1.6 0.00 0.00 0.00 9 1010.1
20260510003637 15 0 0.0 1.6 0.00 0.00 0.00 9 1010.3
20260510002416 15 316 1.6 1.6 0.00 0.00 0.00 9 1010.3
20260510000941 15 0 0.0 1.6 0.00 0.00 0.00 9 1010.7
20260509235456 15 0 0.0 0.0 0.00 0.00 0.00 9 1010.7
20260509234116 15 2 9.7 9.7 0.00 0.00 0.00 9 1010.8
20260509232728 15 0 0.0 0.0 0.00 0.00 0.00 9 1010.9
20260509231351 15 0 0.0 1.6 0.00 0.00 0.00 8 1010.8
20260509230006 15 137 1.6 3.2 0.00 0.00 0.00 9 1010.9
20260509224621 15 137 1.6 3.2 0.00 0.00 0.00 9 1010.9
20260509223206 15 128 3.2 6.4 0.00 0.00 0.00 9 1010.9
20260509221916 15 129 4.8 4.8 0.00 0.00 0.00 9 1010.8
20260509220600 15 0 0.0 0.0 0.00 0.00 0.00 9 1010.7
20260509215244 15 0 0.0 1.6 0.00 0.00 5.08 9 1010.5
20260509213836 15 352 8.0 8.0 0.00 0.00 5.08 9 1010.7
20260509212436 15 0 0.0 0.0 0.00 0.00 5.08 9 1010.9
20260509211221 15 136 1.6 1.6 0.00 0.00 5.08 9 1010.9
20260509205910 15 123 1.6 3.2 0.00 0.00 5.08 9 1010.9
20260509204507 16 0 0.0 1.6 0.00 0.00 5.08 8 1010.5
20260509203155 16 0 0.0 1.6 0.00 0.00 5.08 8 1010.5
20260509201916 16 0 0.0 0.0 0.00 0.00 5.08 8 1010.4
20260509200648 16 0 0.0 0.0 0.00 0.00 5.08 8 1010.3
20260509195452 16 152 1.6 1.6 0.00 0.00 5.08 8 1009.9
20260509194146 16 0 0.0 1.6 0.00 0.00 5.08 8 1009.5
20260509192836 16 0 0.0 1.6 0.00 0.00 5.08 8 1009.3
20260509191349 17 0 0.0 0.0 0.00 0.00 5.08 8 1009.3
20260509185916 17 0 0.0 0.0 0.00 0.00 5.08 8 1009.1
20260509184438 17 252 1.6 1.6 0.00 0.00 5.08 8 1008.7
20260509183157 17 252 1.6 1.6 0.00 0.00 5.08 8 1008.7
20260509181946 18 210 1.6 3.2 0.00 0.00 5.08 8 1008.7
20260509180540 17 165 1.6 1.6 0.00 0.00 5.08 8 1008.5
20260509175116 -17 0 0.0 0.0 0.00 0.00 5.08 100 1008.6
20260509173736 -17 0 0.0 0.0 0.00 0.00 5.08 100 1008.7
20260509172446 -17 0 0.0 0.0 0.00 0.00 5.08 100 1008.4
20260509171021 -17 0 0.0 0.0 0.00 0.00 5.08 100 1008.4
20260509165605 -17 0 0.0 0.0 0.00 0.00 5.08 100 1008.5
20260509164318 -17 0 0.0 0.0 0.00 0.00 5.08 100 1008.2
20260509163028 -17 0 0.0 0.0 0.00 0.00 5.08 100 1008.1